User: anonymous   Login
Location: Lafig�re
(44.4503°N, 4.0357°E)
Time: 13:11:39
(UTC+00:00)
Language:

A-11 Canister half - Orbit

View from above orbital plane
View from above orbital plane
View from above satellite
View from above satellite

Ground track
Ground track

The orbit data is extracted from the following two-line orbital elements,

1 00053U 60009E   21024.75894708 -.00000101  00000-0 -15507-3 0  9995
2 00053  47.2770 296.5222 0100429  14.9099 345.4617 12.17252474695525
Epoch (UTC): 24 January 2021 18:12:53
Eccentricity: 0.0100429
inclination: 47.2770°
perigee height: 1524 km
apogee height: 1684 km
right ascension of ascending node: 296.5222°
argument of perigee: 14.9099°
revolutions per day: 12.17252474
mean anomaly at epoch: 345.4617°
orbit number at epoch: 69552

The dashed part of the orbit path shows where the satellite is in the earth's shadow,  

DLR